Weather History for Whiteman AFB, MO

Change the Weather History Date:

Saturday, May 11, 2013

  Actual Average Record
Temperature  
Mean Temperature 54 °F -  
Max Temperature 65 °F 72 °F 87 °F (2011)
Min Temperature 43 °F 53 °F 43 °F (2013)
Degree Days  
Heating Degree Days 11    
Growing Degree Days 4 (Base 50)    
Moisture  
Dew Point 42 °F    
Average Humidity 80    
Maximum Humidity 100    
Minimum Humidity 28    
Precipitation  
Precipitation 0.01 in - - ()
Sea Level Pressure  
Sea Level Pressure 30.09 in    
Wind  
Wind Speed 5 mph (WSW)    
Max Wind Speed 23 mph    
Max Gust Speed 31 mph    
Visibility 6 miles    
Events Fog    
Averages and records for this station are not official NWS values.
T = Trace of Precipitation, MM = Missing Value Source: NWS Daily Summary

Daily Weather History Graph

Daily Weather History Graph

Search for Another Location

Airport:

Trip Planner

Search our weather history database for the weather conditions in past years. The results will help you decide how hot, cold, wet, or windy it might be!

Date:

Astronomy

May. 11, 2013 Rise Set
Actual Time 6:05 AM CDT 8:16 PM CDT
Civil Twilight 5:35 AM CDT 8:45 PM CDT
Nautical Twilight 4:59 AM CDT 9:22 PM CDT
Astronomical Twilight 4:20 AM CDT 10:01 PM CDT
Moon 7:14 AM CDT (5/11) 9:56 PM CDT (5/11)
Length of Visible Light 15h 09m
Length of Day
14h 10m
Waxing Crescent, 3% of the Moon is Illuminated
May 11
Waxing Crescent
May 17
First Quarter
May 24
Full
May 31
Last Quarter
Jun 8
New

Hourly Weather History & Observations

Time (CDT) Temp. Windchill Dew Point Humidity Pressure Visibility Wind Dir Wind Speed Gust Speed Precip Events Conditions
12:03 AM 50.0 °F - 50.0 °F 100% 30.05 in 1.8 mi Calm Calm - N/A   Clear
12:13 AM 50.0 °F - 50.0 °F 100% 30.04 in 0.8 mi Calm Calm - N/A   Clear
12:43 AM 48.2 °F - 48.2 °F 100% 30.05 in 1.8 mi SSW 2.3 mph - N/A   Clear
12:48 AM 48.2 °F - 48.2 °F 100% 30.05 in 2.5 mi SSW 3.5 mph - N/A   Clear
12:53 AM 48.2 °F - 48.2 °F 100% 30.06 in 1.5 mi SSW 3.5 mph - N/A   Clear
12:58 AM 46.4 °F 45.2 °F 46.4 °F 100% 30.07 in 2.5 mi SSW 3.5 mph - N/A   Clear
1:03 AM 46.4 °F 44.3 °F 46.4 °F 100% 30.06 in 8.0 mi SSW 4.6 mph - N/A   Clear
1:08 AM 46.4 °F 44.3 °F 46.4 °F 100% 30.06 in 10.0 mi SSW 4.6 mph - N/A   Clear
1:33 AM 46.4 °F 45.2 °F 46.4 °F 100% 30.06 in 9.0 mi SSW 3.5 mph - N/A   Clear
1:43 AM 46.4 °F 45.2 °F 46.4 °F 100% 30.06 in 10.0 mi South 3.5 mph - N/A   Clear
1:58 AM 46.4 °F 44.3 °F 46.4 °F 100% 30.07 in 10.0 mi SSW 4.6 mph - N/A   Clear
2:58 AM 46.6 °F - 46.6 °F 100% 30.06 in 10.0 mi Calm Calm - N/A   Clear
3:08 AM 46.4 °F - 46.4 °F 100% 30.05 in 7.0 mi SSW 2.3 mph - N/A   Clear
3:28 AM 44.6 °F - 44.6 °F 100% 30.05 in 9.0 mi South 2.3 mph - N/A   Clear
3:33 AM 44.6 °F - 44.6 °F 100% 30.05 in 3.0 mi South 1.2 mph - N/A   Clear
3:43 AM 44.6 °F - 44.6 °F 100% 30.05 in 6.0 mi SSW 2.3 mph - N/A   Clear
3:53 AM 44.6 °F 43.1 °F 44.6 °F 100% 30.05 in 10.0 mi South 3.5 mph - N/A   Clear
3:58 AM 45.0 °F - 45.0 °F 100% 30.06 in 10.0 mi South 2.3 mph - N/A   Clear
4:28 AM 44.6 °F - 44.6 °F 100% 30.04 in 4.0 mi South 2.3 mph - N/A   Clear
4:33 AM 44.6 °F - 44.6 °F 100% 30.04 in 2.5 mi South 2.3 mph - N/A   Clear
4:38 AM 44.6 °F 43.1 °F 44.6 °F 100% 30.04 in 4.0 mi South 3.5 mph - N/A   Clear
4:43 AM 44.6 °F 43.1 °F 44.6 °F 100% 30.04 in 2.5 mi SSW 3.5 mph - N/A   Clear
4:53 AM 44.6 °F 43.1 °F 44.6 °F 100% 30.04 in 6.0 mi SSW 3.5 mph - N/A   Clear
4:58 AM 45.3 °F 44.0 °F 45.3 °F 100% 30.05 in 4.0 mi SSW 3.5 mph - N/A   Clear
5:03 AM 44.6 °F 42.2 °F 44.6 °F 100% 30.04 in 2.5 mi SSW 4.6 mph - N/A   Clear
5:08 AM 44.6 °F 42.2 °F 44.6 °F 100% 30.04 in 3.0 mi SSW 4.6 mph - N/A   Clear
5:18 AM 44.6 °F 41.4 °F 44.6 °F 100% 30.04 in 1.5 mi SSW 5.8 mph - N/A   Clear
5:23 AM 44.6 °F 41.4 °F 44.6 °F 100% 30.03 in 1.0 mi SSW 5.8 mph - N/A   Clear
5:33 AM 44.6 °F 42.2 °F 44.6 °F 100% 30.04 in 1.8 mi SW 4.6 mph - N/A   Clear
5:38 AM 44.6 °F - 44.6 °F 100% 30.04 in 3.0 mi SW 2.3 mph - N/A   Clear
5:43 AM 44.6 °F 42.2 °F 44.6 °F 100% 30.04 in 1.0 mi SSW 4.6 mph - N/A   Clear
5:48 AM 44.6 °F 42.2 °F 44.6 °F 100% 30.04 in 0.5 mi SSW 4.6 mph - N/A Fog Fog
5:55 AM 44.6 °F 43.1 °F 44.6 °F 100% 30.04 in 0.5 mi SW 3.5 mph - N/A Fog Fog
5:58 AM 43.9 °F 42.3 °F 43.9 °F 100% 30.06 in 0.5 mi SW 3.5 mph - 0.00 in Fog Fog
6:03 AM 44.6 °F - 44.6 °F 100% 30.05 in 1.2 mi WSW 2.3 mph - N/A   Clear
6:04 AM 44.6 °F - 44.6 °F 100% 30.05 in 1.5 mi WSW 2.3 mph - N/A   Clear
6:09 AM 44.6 °F - 44.6 °F 100% 30.05 in 7.0 mi SW 2.3 mph - N/A   Clear
6:58 AM 47.8 °F - 47.8 °F 100% 30.06 in 10.0 mi West 6.9 mph - 0.00 in   Clear
7:58 AM 54.0 °F - 54.0 °F 100% 30.07 in 10.0 mi West 4.6 mph - N/A   Clear
8:58 AM 58.8 °F - 53.8 °F 83% 30.08 in 10.0 mi NW 16.1 mph 24.2 mph N/A   Clear
9:58 AM 60.4 °F - 45.0 °F 57% 30.11 in 10.0 mi NNW 19.6 mph 27.6 mph 0.01 in   Clear
10:58 AM 61.3 °F - 35.4 °F 38% 30.13 in 10.0 mi North 23.0 mph 31.1 mph N/A   Clear
11:58 AM 62.4 °F - 35.8 °F 37% 30.15 in 10.0 mi North 18.4 mph 25.3 mph N/A   Clear
12:58 PM 62.8 °F - 36.7 °F 38% 30.16 in 10.0 mi North 18.4 mph 29.9 mph N/A   Clear
1:15 PM 62.6 °F - 37.4 °F 39% 30.15 in 10.0 mi NW 19.6 mph 24.2 mph N/A   Clear
1:58 PM 64.0 °F - 36.5 °F 36% 30.17 in 10.0 mi North 18.4 mph 26.5 mph N/A   Clear
2:34 PM 64.4 °F - 35.6 °F 34% 30.16 in 10.0 mi NW 20.7 mph 26.5 mph N/A   Clear
2:58 PM 64.9 °F - 34.2 °F 32% 30.17 in 10.0 mi NNW 16.1 mph 27.6 mph N/A   Clear
3:58 PM 65.1 °F - 33.6 °F 31% 30.17 in 10.0 mi NNW 16.1 mph 26.5 mph N/A   Clear
3:59 PM 64.4 °F - 33.8 °F 32% 30.16 in 10.0 mi North 16.1 mph 26.5 mph N/A   Clear
4:58 PM 64.8 °F - 34.3 °F 32% 30.17 in 10.0 mi NNW 15.0 mph 23.0 mph N/A   Clear
5:08 PM 64.4 °F - 32.0 °F 30% 30.16 in 10.0 mi NNW 18.4 mph - N/A   Clear
5:58 PM 63.3 °F - 29.7 °F 28% 30.17 in 10.0 mi NW 16.1 mph 23.0 mph N/A   Clear
6:58 PM 61.3 °F - 29.5 °F 30% 30.17 in 10.0 mi North 12.7 mph 24.2 mph N/A   Clear
7:58 PM 57.7 °F - 29.8 °F 35% 30.19 in 10.0 mi North 11.5 mph - N/A   Clear
8:58 PM 52.0 °F - 34.3 °F 51% 30.20 in 10.0 mi North 8.1 mph - N/A   Clear
9:58 PM 47.1 °F - 34.0 °F 60% 30.22 in 10.0 mi North 4.6 mph - N/A   Clear
10:58 PM 47.1 °F - 32.5 °F 57% 30.24 in 10.0 mi North 6.9 mph - N/A   Clear
11:58 PM 44.2 °F 41.8 °F 33.3 °F 65% 30.24 in 10.0 mi NNW 4.6 mph - N/A   Clear